STARLINK-36827, 67908

Orbit data source: Space-Track

STARLINK-36827, 67908 is a payload satellite owned by SpaceX/Seattle (US) in LEO that was launched on Sun, 22 Feb 2026 UTC via an FALCON 9 launch vehicle from the Air Force Eastern Test Range (AFETR). Payload-class satellites include a variety of spacecraft equipped with specific instruments for various scientific and technological missions. These include communications satellites like Starlink; space stations such as the ISS; scientific satellites like the Hubble; Earth observation satellites from companies like Planet Labs, Umbra, and HawkEye 360; GPS; miniature CubeSats for education and research; and military/defense satellites.

Loading next visibility...
Identifier
67908, 2026-036E
Orbit
LEO
Country
Flag of USUS
Related business
Manufacturer
SpaceX/Seattle
Mission
Operational spacecraft
Bus & Motor
STARLINK V2MO, Unknown motor
Mass
575 kg wet, ~530 kg dry
Launch date (UTC)
2026-02-22 (3 weeks ago)
Launch vehicle
FALCON 9
Launch site
Air Force Eastern Test Range (AFETR)
Object type
Payload
Rocket body
Debris
Shape & HBR
Unknown
Radar Cross Section
RCS unknown

Expand to show TLE details & history
Last TLE update: 13 hours ago

TLE from 13 hours ago
0 STARLINK-36827
1 67908U 26036E   26071.80455142 -.00754653  00000-0 -48950-2 0  9992
2 67908  42.9990 230.7075 0002065 278.8111  81.2525 15.77096314  4167
Epoch: 2026-03-12T19:18Z
TLE epoch observation values (Epoch: 2026-03-12T19:18:33.242Z)
Latitude
-0.00003°
Longitude
130.61978°
Altitude
338.232 km
Speed
7.708 km/s
True Right ascension
15h 22m 49s
True Declination
0° 00' 00"
Sunlit
Object was in full shadow at epoch
Visualization orbit readout
Latitude
Unknown
Longitude
Unknown
Altitude
Unknown
Speed
Unknown
Apparent Right ascension
Unknown
Apparent Declination
Unknown
Sunlit
N/A
Visualization observer readout
Local Sidereal Time
13:02:59
Azimuth
Unknown
Elevation
Unknown
Doppler factor
Unknown
Orbital elements
Apogee altitude
342.047 km
Perigee altitude
339.272 km
Semi-major axis
6,718.796 km
Eccentricity
0.00021
Inclination
42.999°
RAAN
230.7075°
Arg. of periapsis
278.8111°
True anomaly
81.27589°
Mean anomaly
81.2525°
Eccentric anomaly
81.26419°
Mean motion
3.941 °/min
Orbital period
91.35 mins
BSTAR
-0.004895
Loading maneuver chart data...
Computing Atmospheric mass density...
Loading historical data...
Loading historical data...
Loading historical data...
Loading historical data...
Loading historical data...
Loading historical data...
Loading historical data...

Documentation

Showing up to 5 results
|